Flag for South Africa Weather past 2 weeks in Bloemfontein, South Africa

Now
63 °F

Mild.


Feels Like: 63 °F
Forecast: 60 / 81 °F
Wind: 12 mph from Northeast

Location: Bloemfontein Airport

Current Time: Feb 28, 2015 at 1:23:55 AM

Latest Report: Feb 28, 2015 at 12:00 AM


Visibility: N/A

Pressure: 30.15 "Hg

Humidity: 73%

Dew point: 54 °F

Location of BloemfonteinLocation

Historic Weather in Bloemfontein — Graph

°F

Bloemfontein temperature yesterday

Maximum temperature yesterday: 84 °F (at 4:00 PM)
Minimum temperature yesterday: 57 °F (at 4:00 AM)
Average temperature yesterday: 69 °F

Past Weeks' High & Low Weather Summary

 TemperatureHumidityPressure
High95 °F (Feb 20, 4:00 PM)94% (Feb 18, 7:00 AM)30.30 "Hg (Feb 18, 7:00 AM)
Low45 °F (Feb 16, 5:00 AM)10% (Feb 20, 5:00 PM)29.86 "Hg (Feb 13, 6:00 PM)
Average70 °F50%30.07 "Hg
* Reported Midnight between Feb 12 and Feb 13 — Midnight between Feb 27 and Feb 28, Bloemfontein, Weather by CustomWeather, © 2015

Note: Actual official high and low records may vary slightly from our data, if they occured in-between our weather recording intervals... More about our weather records

Advertising

Bloemfontein weather history for previous 24 hours

 ConditionsComfort  
Time TempWeatherWind HumidityBarometerVisibility
12:00 AM
Sat, Feb 28
63 °FMild.12 mph73%30.15 "HgN/A
11:00 PM
Fri, Feb 27
64 °FMild.9 mph60%30.18 "HgN/A
10:00 PM66 °FMild.10 mph56%30.15 "HgN/A
9:00 PM66 °FMild.18 mph52%30.12 "HgN/A
8:00 PM68 °FPassing clouds.29 mph49%30.09 "HgN/A
7:00 PM72 °FPassing clouds.23 mph53%30.07 "HgN/A
6:00 PM81 °FClear.9 mph28%30.01 "Hg10 mi
5:00 PM84 °FSunny.6 mph20%30.01 "Hg10 mi
4:00 PM84 °FPassing clouds.6 mph29%30.01 "HgN/A
3:00 PM81 °FPassing clouds.5 mph32%30.04 "HgN/A
2:00 PM81 °FPassing clouds.6 mph32%30.04 "HgN/A
1:00 PM82 °FPassing clouds.7 mph32%30.07 "HgN/A
12:00 PM79 °FSunny.5 mph34%30.09 "Hg10 mi
11:00 AM75 °FSunny.No wind41%30.12 "Hg10 mi
10:00 AM68 °FSunny.2 mph64%30.12 "Hg10 mi
9:00 AM64 °FScattered clouds.3 mph68%30.09 "HgN/A
8:00 AM63 °FSunny.3 mph77%30.12 "Hg10 mi
7:00 AM61 °FSunny.2 mph77%30.07 "Hg10 mi
6:00 AM57 °FSunny.1 mph88%30.07 "Hg10 mi
5:00 AM57 °FClear.3 mph88%30.07 "Hg10 mi
4:00 AM57 °FCool.1 mph88%30.04 "HgN/A
3:00 AM59 °FCool.2 mph82%30.04 "HgN/A
2:00 AM61 °FCool.No wind77%30.07 "HgN/A
1:00 AM61 °FCool.1 mph77%30.04 "HgN/A
Weather by CustomWeather, © 2015

See weather overviewHow to use our weather pages